sat.trackr.live / text

‹ back to catalog

STARLINK-30802

NORAD 58150 · 2023-166A

PAYLOAD ACTIVE UNKNOWN

§ Identity

Operator
Country
US
Launch date
2023-10-29
Launch site
AFWTR
Launch vehicle
Mass (kg)
RCS (m²)

Purposes: comms

External: N2YO · Heavens-Above · Gunter

§ Orbital elements

Epoch: 2026-05-24T22:35:46.819968Z

Period
94.01 min
Inclination
53.1605°
Eccentricity
0.0000150
Mean motion
15.31692744 rev/d
Perigee alt
470.7 km
Apogee alt
470.9 km
Semi-major
6,848.9 km
B*
-4.1070e-5
RAAN
225.4310°
Arg perigee
95.3640°
Mean anomaly
264.7378°
Rev number
14,485

§ Raw data

STARLINK-308021 58150U 23166A   26144.94151412 -.00001638  00000+0 -41070-4 0  99962 58150  53.1605 225.4310 0000150  95.3640 264.7378 15.31692744144852

JSON: /api/v1/satellites/58150 · /tle

For live sub-satellite position, see the globe view (requires WebGL).

§ Visibility from observer

Set your observer location to see the next 7 days of passes ≥ 10°. The values pass through the URL so the page stays shareable.

No JS? Fill the form by hand. The geolocation button needs JavaScript.